Volver al catálogo

USA 328

ActivoMilitarVLEO
NORAD 52889·PAYLOAD·🇺🇸 United States

Lanzado Jun 19, 2022 desde Cape Canaveral Space Force Station

Loading…

Próximos Pases (próximas 24 horas)

TLE

ObsoletoSource: Mike McCants

Época: Jan 2, 2025, 18:09 UTC

1 52889U 22064B   25002.75667207 0.00000100  00000-0  55176-5 0    08
2 52889  52.9976 332.8121 0008807 170.7245 189.2754 15.13418871    06

Sigue USA 328 en tiempo real con AllMySat

Download on the App Store